Location: Home
(42.5358°N, 72.7383°W)
Time: 16:18:57
(UTC-04:00)

Explorer 11/Cluster Stage 4 - Pass Details

Date: 11 August 2024
Orbit: 464 x 1208 km, 28.8° (Epoch: 19 September)

Event Time Altitude Azimuth Distance (km) Brightness Sun altitude
Rises 04:35:07 0° 253° (WSW) 3,908 - -13.6°
Reaches altitude 10° 04:40:29 10° 221° (SW) 3,072 - -12.8°
Exits shadow 04:42:18 11° 207° (SSW) 3,012 9.0 -12.5°
Maximum altitude 04:42:31 11° 206° (SSW) 3,014 9.0 -12.5°
Drops below altitude 10° 04:44:35 10° 190° (S) 3,124 9.2 -12.2°
Sets 04:50:14 0° 159° (SSE) 4,097 10.1 -11.3°
